Curtis, Michigan, United States (49820)
Lat: 46.21N, Lon: 85.75W
Wx Zone: MIZ015
Local Info
Past Weather Observations for Today

NOTE: This archive is for the closest National Weather Service station to Curtis. Information may differ from the station used for current weather conditions.

Click here for Long-term Archive

Time Weather Temperature Dewpoint Humidity Pressure Winds Precip Visibility
10:54
Overcast
55°F / 13°C 54°F / 12°C 94% 30.06 in
(1018 mb)
S 11.5 mph
(S 19 kph)
- 10SM
10:34
Overcast
55°F / 13°C 54°F / 12°C 94% 30.06 in
(1018 mb)
SE 8.1 mph
(SE 13 kph)
- 10SM
10:14
Overcast
54°F / 12°C 54°F / 12°C 100% 30.06 in
(1018 mb)
SE 6.9 mph
(SE 11 kph)
- 7SM
09:54
Overcast
54°F / 12°C 52°F / 11°C 94% 30.06 in
(1018 mb)
SSE 8.1 mph
(SSE 13 kph)
- 7SM
09:34
Overcast
Fog And Mist
54°F / 12°C 52°F / 11°C 94% 30.06 in
(1018 mb)
S 10.4 mph
(S 17 kph)
- 5SM
09:14
Overcast
Fog And Mist
52°F / 11°C 52°F / 11°C 100% 30.06 in
(1018 mb)
S 10.4 mph
(S 17 kph)
- 4SM
08:54
Overcast
Fog And Mist
52°F / 11°C 52°F / 11°C 100% 30.06 in
(1018 mb)
S 9.2 mph
(S 15 kph)
- 4SM
08:34
Overcast
Fog And Mist
52°F / 11°C 52°F / 11°C 100% 30.06 in
(1018 mb)
SE 9.2 mph
(SE 15 kph)
- 1 1/2SM
08:14
Overcast
Fog And Mist
52°F / 11°C 52°F / 11°C 100% 30.06 in
(1018 mb)
SE 8.1 mph
(SE 13 kph)
- 1 3/4SM
07:54
Overcast
Fog And Mist
52°F / 11°C 52°F / 11°C 100% 30.06 in
(1018 mb)
SE 6.9 mph
(SE 11 kph)
- 2 1/2SM
07:34
Overcast
Fog And Mist
52°F / 11°C 52°F / 11°C 100% 30.06 in
(1018 mb)
SE 5.8 mph
(SE 9 kph)
- 2SM
07:14
Overcast
Fog And Mist
52°F / 11°C 50°F / 10°C 94% 30.06 in
(1018 mb)
SE 6.9 mph
(SE 11 kph)
- 1 1/2SM
06:54
Overcast
Fog And Mist
50°F / 10°C 50°F / 10°C 100% 30.06 in
(1018 mb)
SE 4.6 mph
(SE 7 kph)
- 2SM
06:34
Overcast
Fog And Mist
50°F / 10°C 50°F / 10°C 100% 30.06 in
(1018 mb)
ESE 5.8 mph
(ESE 9 kph)
- 2SM
06:14
Overcast
Fog And Mist
50°F / 10°C 50°F / 10°C 100% 30.06 in
(1018 mb)
SE 3.5 mph
(SE 6 kph)
- 2SM
05:54
Overcast
Fog And Mist
50°F / 10°C 50°F / 10°C 100% 30.04 in
(1017 mb)
SE 6.9 mph
(SE 11 kph)
- 2SM
05:34
Overcast
Fog And Mist
50°F / 10°C 50°F / 10°C 100% 30.04 in
(1017 mb)
ESE 4.6 mph
(ESE 7 kph)
- 4SM
05:14
Overcast
Fog And Mist
50°F / 10°C 50°F / 10°C 100% 30.04 in
(1017 mb)
S 6.9 mph
(S 11 kph)
- 5SM
04:54
Overcast
50°F / 10°C 50°F / 10°C 100% 30.04 in
(1017 mb)
E 6.9 mph
(E 11 kph)
- 7SM
04:34
Overcast
50°F / 10°C 50°F / 10°C 100% 30.04 in
(1017 mb)
E 6.9 mph
(E 11 kph)
- 10SM
04:14
Overcast
50°F / 10°C 50°F / 10°C 100% 30.04 in
(1017 mb)
E 6.9 mph
(E 11 kph)
- 10SM
03:54
Overcast
50°F / 10°C 50°F / 10°C 100% 30.06 in
(1018 mb)
ESE 4.6 mph
(ESE 7 kph)
- 10SM
03:34
Overcast
50°F / 10°C 50°F / 10°C 100% 30.06 in
(1018 mb)
E 5.8 mph
(E 9 kph)
- 10SM
03:14
Overcast
50°F / 10°C 48°F / 9°C 94% 30.06 in
(1018 mb)
S 4.6 mph
(S 7 kph)
- 10SM
02:54
Overcast
50°F / 10°C 48°F / 9°C 94% 30.06 in
(1018 mb)
S 3.5 mph
(S 6 kph)
- 10SM
02:34
Overcast
50°F / 10°C 48°F / 9°C 94% 30.06 in
(1018 mb)
E 3.5 mph
(E 6 kph)
- 10SM
02:14
Overcast
50°F / 10°C 48°F / 9°C 94% 30.06 in
(1018 mb)
ESE 4.6 mph
(ESE 7 kph)
- 10SM
01:54
Overcast
50°F / 10°C 48°F / 9°C 94% 30.06 in
(1018 mb)
SE 3.5 mph
(SE 6 kph)
- 10SM
01:34
Overcast
50°F / 10°C 48°F / 9°C 94% 30.09 in
(1019 mb)
SW 5.8 mph
(SW 9 kph)
- 10SM
01:14
Overcast
50°F / 10°C 48°F / 9°C 94% 30.06 in
(1018 mb)
SW 6.9 mph
(SW 11 kph)
- 10SM
00:54
Overcast
50°F / 10°C 46°F / 8°C 88% 30.06 in
(1018 mb)
SW 6.9 mph
(SW 11 kph)
- 10SM
00:34
Overcast
50°F / 10°C 46°F / 8°C 88% 30.06 in
(1018 mb)
SW 6.9 mph
(SW 11 kph)
- 10SM
00:14
Overcast
50°F / 10°C 46°F / 8°C 88% 30.06 in
(1018 mb)
SW 6.9 mph
(SW 11 kph)
- 10SM
Time Weather Temperature Dewpoint Humidity Pressure Winds Precip Visibility


Weather for websites

WeatherForYou.com, LLC is not responsible for any damages or problems caused by this service. Current weather conditions are obtained from the closest station including government and personal stations which may have varying degrees of accuracy. Weather forecasts are derived from the NOAA NDFD. Like all things, this site belongs to Jesus Christ... He just trusts me to maintain it. If you have any questions or comments email webmaster@weatherforyou.com

Copyright © 2014, WeatherForYou.com LLC. All rights reserved.